Time,TemperatureF,DewpointF,PressureIn,WindDirection,WindDirectionDegrees,WindSpeedMPH,WindSpeedGustMPH,Humidity,HourlyPrecipIn,Conditions,Clouds,dailyrainin,SoftwareType,DateUTC
2013-06-24 00:01:00,73.7,67.1,29.97,SSE,148,0.0,0.0,80,0.00,RA,,0.00,WeatherDisplay:10.37,2013-06-24 04:01:00,
2013-06-24 00:02:00,73.7,67.1,29.97,SSE,148,0.0,0.0,80,0.00,RA,,0.00,WeatherDisplay:10.37,2013-06-24 04:02:00,
2013-06-24 00:07:00,73.6,67.0,29.97,SSE,148,0.0,1.0,80,0.00,RA,,0.00,WeatherDisplay:10.37,2013-06-24 04:07:00,
2013-06-24 00:12:00,73.5,66.9,29.97,SSE,148,0.0,0.0,80,0.00,,,0.00,WeatherDisplay:10.37,2013-06-24 04:12:00,
2013-06-24 00:17:00,73.4,66.9,29.97,SSE,148,0.1,1.1,80,0.00,,,0.00,WeatherDisplay:10.37,2013-06-24 04:17:00,
2013-06-24 00:23:00,73.3,66.8,29.97,SSE,148,0.0,0.0,80,0.00,,,0.00,WeatherDisplay:10.37,2013-06-24 04:23:00,
2013-06-24 00:28:00,73.2,66.7,29.97,SSE,148,0.0,1.1,80,0.00,,,0.00,WeatherDisplay:10.37,2013-06-24 04:28:00,
2013-06-24 00:33:00,73.1,66.6,29.97,SSE,148,0.0,1.1,80,0.00,,,0.00,WeatherDisplay:10.37,2013-06-24 04:33:00,
2013-06-24 00:38:00,73.1,66.6,29.97,SSE,148,0.0,0.0,80,0.00,,,0.00,WeatherDisplay:10.37,2013-06-24 04:38:00,
2013-06-24 00:43:00,73.1,66.6,29.98,SSE,148,0.0,0.0,80,0.00,,,0.00,WeatherDisplay:10.37,2013-06-24 04:43:00,
2013-06-24 00:49:00,73.1,66.6,29.98,SSE,148,0.0,0.0,80,0.00,,,0.00,WeatherDisplay:10.37,2013-06-24 04:49:00,
2013-06-24 00:54:00,73.1,66.6,29.98,SSE,148,0.0,0.0,80,0.00,,,0.00,WeatherDisplay:10.37,2013-06-24 04:54:00,
2013-06-24 00:59:00,73.0,66.5,29.98,SSE,148,0.0,0.0,80,0.00,,,0.00,WeatherDisplay:10.37,2013-06-24 04:59:00,
2013-06-24 01:04:00,73.0,66.1,29.98,SSE,148,0.1,1.1,79,0.00,,,0.00,WeatherDisplay:10.37,2013-06-24 05:04:00,
2013-06-24 01:10:00,73.0,66.1,29.98,SSE,148,0.0,0.0,79,0.00,,,0.00,WeatherDisplay:10.37,2013-06-24 05:10:00,
2013-06-24 01:15:00,73.0,66.1,29.98,SSE,148,0.0,1.1,79,0.00,,,0.00,WeatherDisplay:10.37,2013-06-24 05:15:00,
2013-06-24 01:20:00,73.0,66.1,29.98,SSE,148,0.0,1.1,79,0.00,,,0.00,WeatherDisplay:10.37,2013-06-24 05:20:00,
2013-06-24 01:25:00,73.1,66.6,29.98,SSE,148,0.0,0.0,80,0.00,,,0.00,WeatherDisplay:10.37,2013-06-24 05:25:00,
2013-06-24 01:30:00,72.9,66.7,29.98,SSE,148,0.0,0.0,81,0.00,CLR,,0.00,WeatherDisplay:10.37,2013-06-24 05:30:00,
2013-06-24 01:35:00,72.6,66.4,29.98,SSE,148,0.0,0.0,81,0.00,CLR,,0.00,WeatherDisplay:10.37,2013-06-24 05:35:00,
2013-06-24 01:41:00,72.4,66.6,29.98,SSE,148,0.0,0.0,82,0.00,CLR,,0.00,WeatherDisplay:10.37,2013-06-24 05:41:00,
2013-06-24 01:46:00,72.2,66.7,29.98,SSE,148,0.0,0.0,83,0.00,CLR,,0.00,WeatherDisplay:10.37,2013-06-24 05:46:00,
2013-06-24 01:52:00,72.0,66.2,29.97,SSE,148,0.0,0.0,82,0.00,CLR,,0.00,WeatherDisplay:10.37,2013-06-24 05:52:00,
2013-06-24 01:57:00,71.9,66.5,29.97,SSE,148,0.0,0.0,83,0.00,CLR,,0.00,WeatherDisplay:10.37,2013-06-24 05:57:00,
2013-06-24 02:02:00,71.8,66.4,29.97,SSE,148,0.0,0.0,83,0.00,CLR,,0.00,WeatherDisplay:10.37,2013-06-24 06:02:00,
2013-06-24 02:07:00,71.8,66.4,29.97,SSE,148,0.0,0.0,83,0.00,CLR,,0.00,WeatherDisplay:10.37,2013-06-24 06:07:00,
2013-06-24 02:12:00,71.7,66.6,29.97,SSE,148,0.0,0.0,84,0.00,CLR,,0.00,WeatherDisplay:10.37,2013-06-24 06:12:00,
2013-06-24 02:18:00,71.5,66.4,29.97,SSE,148,0.0,0.0,84,0.00,CLR,,0.00,WeatherDisplay:10.37,2013-06-24 06:18:00,
2013-06-24 02:24:00,71.3,66.2,29.97,SSE,148,0.0,0.0,84,0.00,CLR,,0.00,WeatherDisplay:10.37,2013-06-24 06:24:00,
2013-06-24 02:29:00,71.0,65.9,29.97,SSE,148,0.0,0.0,84,0.00,CLR,,0.00,WeatherDisplay:10.37,2013-06-24 06:29:00,
2013-06-24 02:34:00,70.7,66.0,29.97,SSE,148,0.0,0.0,85,0.00,CLR,,0.00,WeatherDisplay:10.37,2013-06-24 06:34:00,
2013-06-24 02:40:00,70.5,65.8,29.97,SSE,148,0.0,0.0,85,0.00,CLR,,0.00,WeatherDisplay:10.37,2013-06-24 06:40:00,
2013-06-24 02:45:00,70.3,65.9,29.97,SSE,148,0.0,0.0,86,0.00,CLR,,0.00,WeatherDisplay:10.37,2013-06-24 06:45:00,
2013-06-24 02:50:00,70.3,65.9,29.96,SSE,148,0.0,0.0,86,0.00,CLR,,0.00,WeatherDisplay:10.37,2013-06-24 06:50:00,
2013-06-24 02:55:00,70.3,65.9,29.96,SSE,148,0.0,0.0,86,0.00,CLR,,0.00,WeatherDisplay:10.37,2013-06-24 06:55:00,
2013-06-24 03:00:00,70.2,65.8,29.96,SSE,148,0.0,0.0,86,0.00,CLR,,0.00,WeatherDisplay:10.37,2013-06-24 07:00:00,
2013-06-24 03:06:00,70.2,66.1,29.96,SSE,148,0.0,0.0,87,0.00,CLR,,0.00,WeatherDisplay:10.37,2013-06-24 07:06:00,
2013-06-24 03:11:00,70.1,66.0,29.96,SSE,148,0.0,0.0,87,0.00,CLR,,0.00,WeatherDisplay:10.37,2013-06-24 07:11:00,
2013-06-24 03:16:00,70.0,66.0,29.96,SSE,148,0.0,0.0,87,0.00,CLR,,0.00,WeatherDisplay:10.37,2013-06-24 07:16:00,
2013-06-24 03:21:00,69.9,65.9,29.96,SSE,148,0.0,0.0,87,0.00,CLR,,0.00,WeatherDisplay:10.37,2013-06-24 07:21:00,
2013-06-24 03:26:00,69.8,65.8,29.96,SSE,148,0.0,0.0,87,0.00,CLR,,0.00,WeatherDisplay:10.37,2013-06-24 07:26:00,
2013-06-24 03:31:00,69.7,65.7,29.96,SSE,148,0.0,0.0,87,0.00,CLR,,0.00,WeatherDisplay:10.37,2013-06-24 07:31:00,
2013-06-24 03:37:00,69.7,65.7,29.96,SSE,148,0.0,0.0,87,0.00,CLR,,0.00,WeatherDisplay:10.37,2013-06-24 07:37:00,
2013-06-24 03:42:00,69.6,65.9,29.96,SSE,148,0.0,0.0,88,0.00,CLR,,0.00,WeatherDisplay:10.37,2013-06-24 07:42:00,
2013-06-24 03:48:00,69.6,65.9,29.97,SSE,148,0.0,0.0,88,0.00,CLR,,0.00,WeatherDisplay:10.37,2013-06-24 07:48:00,
2013-06-24 03:53:00,69.3,65.6,29.96,SSE,148,0.0,0.0,88,0.00,CLR,,0.00,WeatherDisplay:10.37,2013-06-24 07:53:00,
2013-06-24 03:58:00,69.1,65.7,29.96,SSE,148,0.0,0.0,89,0.00,CLR,,0.00,WeatherDisplay:10.37,2013-06-24 07:58:00,
2013-06-24 04:04:00,68.9,65.5,29.97,SSE,148,0.0,0.0,89,0.00,CLR,,0.00,WeatherDisplay:10.37,2013-06-24 08:04:00,
2013-06-24 04:09:00,68.9,65.5,29.97,SSE,148,0.0,0.0,89,0.00,CLR,,0.00,WeatherDisplay:10.37,2013-06-24 08:09:00,
2013-06-24 04:15:00,68.8,65.4,29.97,SSE,148,0.0,0.0,89,0.00,CLR,,0.00,WeatherDisplay:10.37,2013-06-24 08:15:00,
2013-06-24 04:20:00,68.8,65.4,29.97,SSE,148,0.0,0.0,89,0.00,CLR,,0.00,WeatherDisplay:10.37,2013-06-24 08:20:00,
2013-06-24 04:26:00,68.7,65.6,29.97,SSE,148,0.0,0.0,90,0.00,CLR,,0.00,WeatherDisplay:10.37,2013-06-24 08:26:00,
2013-06-24 04:32:00,68.7,65.6,29.97,SSE,148,0.0,0.0,90,0.00,CLR,,0.00,WeatherDisplay:10.37,2013-06-24 08:32:00,
2013-06-24 04:37:00,68.8,65.7,29.97,SSE,148,0.0,0.0,90,0.00,CLR,,0.00,WeatherDisplay:10.37,2013-06-24 08:37:00,
2013-06-24 04:43:00,68.7,65.6,29.97,SSE,148,0.0,0.0,90,0.00,CLR,,0.00,WeatherDisplay:10.37,2013-06-24 08:43:00,
2013-06-24 04:49:00,68.7,65.6,29.97,SSE,148,0.0,0.0,90,0.00,CLR,,0.00,WeatherDisplay:10.37,2013-06-24 08:49:00,
2013-06-24 04:54:00,68.7,65.6,29.97,SSE,148,0.0,0.0,90,0.00,CLR,,0.00,WeatherDisplay:10.37,2013-06-24 08:54:00,
2013-06-24 04:59:00,68.7,66.0,29.97,SSE,148,0.0,0.0,91,0.00,CLR,,0.00,WeatherDisplay:10.37,2013-06-24 08:59:00,
2013-06-24 05:05:00,68.6,65.9,29.97,SSE,148,0.0,0.0,91,0.00,CLR,,0.00,WeatherDisplay:10.37,2013-06-24 09:05:00,
2013-06-24 05:10:00,68.6,65.9,29.97,SSE,148,0.0,0.0,91,0.00,CLR,,0.00,WeatherDisplay:10.37,2013-06-24 09:10:00,
2013-06-24 05:15:00,68.6,65.9,29.97,SSE,148,0.0,0.0,91,0.00,CLR,,0.00,WeatherDisplay:10.37,2013-06-24 09:15:00,
2013-06-24 05:20:00,68.6,65.9,29.97,SSE,148,0.0,0.0,91,0.00,CLR,,0.00,WeatherDisplay:10.37,2013-06-24 09:20:00,
2013-06-24 05:26:00,68.6,65.9,29.98,SSE,148,0.0,0.0,91,0.00,CLR,,0.00,WeatherDisplay:10.37,2013-06-24 09:26:00,
2013-06-24 05:32:00,68.6,65.9,29.98,SSE,148,0.0,0.0,91,0.00,CLR,,0.00,WeatherDisplay:10.37,2013-06-24 09:32:00,
2013-06-24 05:37:00,68.6,65.9,29.98,SSE,148,0.0,0.0,91,0.00,CLR,,0.00,WeatherDisplay:10.37,2013-06-24 09:37:00,
2013-06-24 05:42:00,68.6,65.9,29.98,SSE,148,0.0,0.0,91,0.00,CLR,,0.00,WeatherDisplay:10.37,2013-06-24 09:42:00,
2013-06-24 05:48:00,68.7,66.3,29.98,SSE,148,0.0,0.0,92,0.00,CLR,,0.00,WeatherDisplay:10.37,2013-06-24 09:48:00,
2013-06-24 05:53:00,68.8,66.4,29.98,SSE,148,0.0,0.0,92,0.00,CLR,,0.00,WeatherDisplay:10.37,2013-06-24 09:53:00,
2013-06-24 05:58:00,68.8,66.1,29.98,SSE,148,0.0,0.0,91,0.00,CLR,,0.00,WeatherDisplay:10.37,2013-06-24 09:58:00,
2013-06-24 06:04:00,68.9,66.2,29.98,SSE,148,0.0,0.0,91,0.00,CLR,,0.00,WeatherDisplay:10.37,2013-06-24 10:04:00,
2013-06-24 06:09:00,68.9,66.2,29.98,SSE,148,0.0,0.0,91,0.00,CLR,,0.00,WeatherDisplay:10.37,2013-06-24 10:09:00,
2013-06-24 06:15:00,69.0,66.3,29.98,SSE,148,0.0,0.0,91,0.00,CLR,,0.00,WeatherDisplay:10.37,2013-06-24 10:15:00,
2013-06-24 06:20:00,69.2,66.5,29.98,SSE,148,0.0,0.0,91,0.00,CLR,,0.00,WeatherDisplay:10.37,2013-06-24 10:20:00,
2013-06-24 06:25:00,69.4,66.7,29.99,SSE,148,0.0,0.0,91,0.00,CLR,,0.00,WeatherDisplay:10.37,2013-06-24 10:25:00,
2013-06-24 06:30:00,69.5,66.8,29.99,SSE,148,0.0,0.0,91,0.00,CLR,,0.00,WeatherDisplay:10.37,2013-06-24 10:30:00,
2013-06-24 06:35:00,69.6,66.9,29.99,SSE,148,0.0,1.1,91,0.00,CLR,,0.00,WeatherDisplay:10.37,2013-06-24 10:35:00,
2013-06-24 06:40:00,69.8,67.1,29.99,SSE,148,0.0,0.0,91,0.00,CLR,,0.00,WeatherDisplay:10.37,2013-06-24 10:40:00,
2013-06-24 06:46:00,70.0,67.3,29.98,SSE,148,0.0,0.0,91,0.00,CLR,,0.00,WeatherDisplay:10.37,2013-06-24 10:46:00,
2013-06-24 06:51:00,70.3,67.2,29.98,SSE,148,0.0,0.0,90,0.00,CLR,,0.00,WeatherDisplay:10.37,2013-06-24 10:51:00,
2013-06-24 06:56:00,70.5,67.4,29.99,SSE,148,0.0,1.1,90,0.00,CLR,,0.00,WeatherDisplay:10.37,2013-06-24 10:56:00,
2013-06-24 07:01:00,70.7,67.6,29.98,SSE,148,0.0,0.0,90,0.00,CLR,,0.00,WeatherDisplay:10.37,2013-06-24 11:01:00,
2013-06-24 07:07:00,71.0,67.6,29.99,SSE,148,0.0,0.0,89,0.00,CLR,,0.00,WeatherDisplay:10.37,2013-06-24 11:07:00,
2013-06-24 07:12:00,71.2,67.8,29.98,SSE,148,0.0,0.0,89,0.00,CLR,,0.00,WeatherDisplay:10.37,2013-06-24 11:12:00,
2013-06-24 07:17:00,71.3,67.9,29.98,SSE,148,0.0,0.0,89,0.00,CLR,,0.00,WeatherDisplay:10.37,2013-06-24 11:17:00,
2013-06-24 07:22:00,71.5,68.1,29.98,SSE,148,0.0,0.0,89,0.00,CLR,,0.00,WeatherDisplay:10.37,2013-06-24 11:22:00,
2013-06-24 07:27:00,71.7,68.0,29.98,SSE,148,0.0,0.0,88,0.00,CLR,,0.00,WeatherDisplay:10.37,2013-06-24 11:27:00,
2013-06-24 07:32:00,72.0,68.2,29.98,SSE,148,0.0,0.0,88,0.00,CLR,,0.00,WeatherDisplay:10.37,2013-06-24 11:32:00,
2013-06-24 07:37:00,72.2,68.4,29.98,SSE,148,0.0,0.0,88,0.00,CLR,,0.00,WeatherDisplay:10.37,2013-06-24 11:37:00,
2013-06-24 07:43:00,72.6,68.8,29.98,SSE,148,0.1,1.1,88,0.00,CLR,,0.00,WeatherDisplay:10.37,2013-06-24 11:43:00,
2013-06-24 07:48:00,73.1,69.0,29.98,SSE,148,0.1,1.1,87,0.00,CLR,,0.00,WeatherDisplay:10.37,2013-06-24 11:48:00,
2013-06-24 07:53:00,73.6,69.2,29.99,WSW,253,0.0,0.0,86,0.00,CLR,,0.00,WeatherDisplay:10.37,2013-06-24 11:53:00,
2013-06-24 07:59:00,74.2,69.4,29.99,WSW,254,0.7,2.3,85,0.00,CLR,,0.00,WeatherDisplay:10.37,2013-06-24 11:59:00,
2013-06-24 08:04:00,74.9,69.4,29.98,WSW,242,0.6,2.3,83,0.00,CLR,,0.00,WeatherDisplay:10.37,2013-06-24 12:04:00,
2013-06-24 08:09:00,75.4,69.5,29.99,SW,235,0.6,2.3,82,0.00,CLR,,0.00,WeatherDisplay:10.37,2013-06-24 12:09:00,
2013-06-24 08:14:00,75.8,69.6,29.98,SSW,195,0.3,1.1,81,0.00,CLR,,0.00,WeatherDisplay:10.37,2013-06-24 12:14:00,
2013-06-24 08:21:00,76.3,69.7,29.98,South,188,0.9,2.0,80,0.00,CLR,,0.00,WeatherDisplay:10.37,2013-06-24 12:21:00,
2013-06-24 08:26:00,76.7,69.7,29.98,SW,221,1.2,3.5,79,0.00,CLR,,0.00,WeatherDisplay:10.37,2013-06-24 12:26:00,
2013-06-24 08:31:00,77.1,69.7,29.98,SSW,199,1.3,3.5,78,0.00,CLR,,0.00,WeatherDisplay:10.37,2013-06-24 12:31:00,
2013-06-24 08:36:00,77.4,69.6,29.98,SSW,194,1.4,3.5,77,0.00,CLR,,0.00,WeatherDisplay:10.37,2013-06-24 12:36:00,
2013-06-24 08:41:00,77.6,69.8,29.98,SSW,207,4.0,8.1,77,0.00,CLR,,0.00,WeatherDisplay:10.37,2013-06-24 12:41:00,
2013-06-24 08:46:00,77.8,70.0,29.98,WSW,244,3.7,5.8,77,0.00,CLR,,0.00,WeatherDisplay:10.37,2013-06-24 12:46:00,
2013-06-24 08:52:00,78.0,69.8,29.98,SW,227,3.8,9.2,76,0.00,CLR,,0.00,WeatherDisplay:10.37,2013-06-24 12:52:00,
2013-06-24 08:57:00,78.3,70.1,29.98,SW,232,3.8,9.2,76,0.00,CLR,,0.00,WeatherDisplay:10.37,2013-06-24 12:57:00,
2013-06-24 09:02:00,78.5,69.9,29.99,WSW,241,2.3,4.0,75,0.00,CLR,,0.00,WeatherDisplay:10.37,2013-06-24 13:02:00,
2013-06-24 09:08:00,78.7,70.5,29.99,SW,225,2.3,5.0,76,0.00,CLR,,0.00,WeatherDisplay:10.37,2013-06-24 13:08:00,
2013-06-24 09:13:00,78.7,70.1,29.99,SSW,201,2.4,4.6,75,0.00,CLR,,0.00,WeatherDisplay:10.37,2013-06-24 13:13:00,
2013-06-24 09:18:00,78.7,70.5,29.99,SW,232,1.5,3.0,76,0.00,CLR,,0.00,WeatherDisplay:10.37,2013-06-24 13:18:00,
2013-06-24 09:23:00,78.7,70.5,29.99,SW,231,2.6,3.5,76,0.00,CLR,,0.00,WeatherDisplay:10.37,2013-06-24 13:23:00,
2013-06-24 09:28:00,78.7,70.5,29.99,SSW,196,1.8,2.3,76,0.00,CLR,,0.00,WeatherDisplay:10.37,2013-06-24 13:28:00,
2013-06-24 09:33:00,78.7,70.5,29.99,SW,227,1.7,3.5,76,0.00,CLR,,0.00,WeatherDisplay:10.37,2013-06-24 13:33:00,
2013-06-24 09:38:00,79.0,71.2,29.99,SW,221,1.0,2.3,77,0.00,CLR,,0.00,WeatherDisplay:10.37,2013-06-24 13:38:00,
2013-06-24 09:44:00,79.2,71.0,29.99,West,272,1.5,3.5,76,0.00,CLR,,0.00,WeatherDisplay:10.37,2013-06-24 13:44:00,
2013-06-24 09:49:00,79.3,71.5,29.99,SW,229,1.3,1.3,77,0.00,CLR,,0.00,WeatherDisplay:10.37,2013-06-24 13:49:00,
2013-06-24 09:54:00,79.4,71.2,29.99,SSW,196,2.3,3.5,76,0.00,CLR,,0.00,WeatherDisplay:10.37,2013-06-24 13:54:00,
2013-06-24 09:59:00,79.7,71.1,29.98,SSW,203,1.8,5.8,75,0.00,CLR,,0.00,WeatherDisplay:10.37,2013-06-24 13:59:00,
2013-06-24 10:04:00,80.1,71.1,29.98,SSW,200,3.7,6.9,74,0.00,CLR,,0.00,WeatherDisplay:10.37,2013-06-24 14:04:00,
2013-06-24 10:10:00,80.4,71.3,29.98,SW,225,3.7,5.8,74,0.00,CLR,,0.00,WeatherDisplay:10.37,2013-06-24 14:10:00,
2013-06-24 10:15:00,80.5,71.0,29.98,SW,225,0.2,2.0,73,0.00,CLR,,0.00,WeatherDisplay:10.37,2013-06-24 14:15:00,
2013-06-24 10:20:00,80.7,71.6,29.98,WSW,249,1.6,2.3,74,0.00,CLR,,0.00,WeatherDisplay:10.37,2013-06-24 14:20:00,
2013-06-24 10:25:00,81.0,71.1,29.98,SW,223,0.8,3.5,72,0.00,CLR,,0.00,WeatherDisplay:10.37,2013-06-24 14:25:00,
2013-06-24 10:32:00,81.1,71.2,29.98,WSW,243,0.3,2.0,72,0.00,CLR,,0.00,WeatherDisplay:10.37,2013-06-24 14:32:00,
2013-06-24 10:37:00,81.5,71.2,29.98,South,190,1.6,3.5,71,0.00,CLR,,0.00,WeatherDisplay:10.37,2013-06-24 14:37:00,
2013-06-24 10:42:00,82.1,72.2,29.98,SSW,211,1.8,4.6,72,0.00,CLR,,0.00,WeatherDisplay:10.37,2013-06-24 14:42:00,
2013-06-24 10:47:00,82.3,71.5,29.97,SW,218,3.3,5.8,70,0.00,CLR,,0.00,WeatherDisplay:10.37,2013-06-24 14:47:00,
2013-06-24 10:52:00,82.5,72.1,29.97,SW,218,1.0,2.3,71,0.00,CLR,,0.00,WeatherDisplay:10.37,2013-06-24 14:52:00,
2013-06-24 10:58:00,82.4,71.6,29.98,SSW,192,2.4,6.9,70,0.00,CLR,,0.00,WeatherDisplay:10.37,2013-06-24 14:58:00,
2013-06-24 11:03:00,82.4,71.6,29.98,SSW,207,1.2,3.5,70,0.00,CLR,,0.00,WeatherDisplay:10.37,2013-06-24 15:03:00,
2013-06-24 11:08:00,82.6,71.0,29.97,SSW,203,1.0,3.5,68,0.00,CLR,,0.00,WeatherDisplay:10.37,2013-06-24 15:08:00,
2013-06-24 11:14:00,82.9,71.7,29.97,SSW,206,2.2,3.5,69,0.00,CLR,,0.00,WeatherDisplay:10.37,2013-06-24 15:14:00,
2013-06-24 11:19:00,82.7,71.5,29.97,South,178,1.7,3.0,69,0.00,CLR,,0.00,WeatherDisplay:10.37,2013-06-24 15:19:00,
2013-06-24 11:24:00,83.0,71.3,29.97,South,169,1.1,3.5,68,0.00,CLR,,0.00,WeatherDisplay:10.37,2013-06-24 15:24:00,
2013-06-24 11:29:00,83.2,71.5,29.97,SW,227,1.4,3.0,68,0.00,CLR,,0.00,WeatherDisplay:10.37,2013-06-24 15:29:00,
2013-06-24 11:35:00,83.1,70.6,29.97,SSW,209,3.8,6.9,66,0.00,CLR,,0.00,WeatherDisplay:10.37,2013-06-24 15:35:00,
2013-06-24 11:41:00,83.4,71.3,29.98,SW,217,0.5,2.3,67,0.00,CLR,,0.00,WeatherDisplay:10.37,2013-06-24 15:41:00,
2013-06-24 11:46:00,83.9,71.8,29.97,SSW,198,1.4,3.5,67,0.00,CLR,,0.00,WeatherDisplay:10.37,2013-06-24 15:46:00,
2013-06-24 11:51:00,84.4,70.9,29.97,South,190,3.8,5.8,64,0.00,CLR,,0.00,WeatherDisplay:10.37,2013-06-24 15:51:00,
2013-06-24 11:56:00,84.6,71.1,29.97,SSW,211,3.2,4.6,64,0.00,CLR,,0.00,WeatherDisplay:10.37,2013-06-24 15:56:00,
2013-06-24 12:01:00,84.7,71.2,29.97,SSW,202,0.7,2.3,64,0.00,CLR,,0.00,WeatherDisplay:10.37,2013-06-24 16:01:00,
2013-06-24 12:06:00,84.7,71.6,29.97,SSW,206,0.8,3.5,65,0.00,CLR,,0.00,WeatherDisplay:10.37,2013-06-24 16:06:00,
2013-06-24 12:11:00,85.1,71.1,29.97,SSW,195,0.9,3.5,63,0.00,CLR,,0.00,WeatherDisplay:10.37,2013-06-24 16:11:00,
2013-06-24 12:16:00,85.5,72.4,29.97,SSW,195,0.0,0.0,65,0.00,CLR,,0.00,WeatherDisplay:10.37,2013-06-24 16:16:00,
2013-06-24 12:22:00,86.1,72.5,29.97,SSW,195,0.1,1.1,64,0.00,CLR,,0.00,WeatherDisplay:10.37,2013-06-24 16:22:00,
2013-06-24 12:27:00,86.4,72.3,29.97,WSW,248,0.0,0.0,63,0.00,CLR,,0.00,WeatherDisplay:10.37,2013-06-24 16:27:00,
2013-06-24 12:32:00,86.7,72.1,29.97,SSW,205,1.3,3.5,62,0.00,CLR,,0.00,WeatherDisplay:10.37,2013-06-24 16:32:00,
2013-06-24 12:37:00,86.8,71.2,29.97,South,174,0.3,2.3,60,0.00,CLR,,0.00,WeatherDisplay:10.37,2013-06-24 16:37:00,
2013-06-24 12:42:00,87.1,72.0,29.97,SSW,203,1.0,2.3,61,0.00,CLR,,0.00,WeatherDisplay:10.37,2013-06-24 16:42:00,
2013-06-24 12:48:00,87.7,71.1,29.97,WSW,238,1.3,4.0,58,0.00,CLR,,0.00,WeatherDisplay:10.37,2013-06-24 16:48:00,
2013-06-24 12:53:00,87.6,70.5,29.97,WSW,241,3.1,5.8,57,0.00,CLR,,0.00,WeatherDisplay:10.37,2013-06-24 16:53:00,
2013-06-24 12:58:00,87.7,71.1,29.97,SSW,192,1.8,3.5,58,0.00,CLR,,0.00,WeatherDisplay:10.37,2013-06-24 16:58:00,
2013-06-24 13:03:00,88.0,71.4,29.97,WSW,241,2.3,4.6,58,0.00,CLR,,0.00,WeatherDisplay:10.37,2013-06-24 17:03:00,
2013-06-24 13:09:00,87.7,70.1,29.98,SW,227,2.9,5.8,56,0.00,CLR,,0.00,WeatherDisplay:10.37,2013-06-24 17:09:00,
2013-06-24 13:14:00,87.2,70.6,29.98,SW,217,0.5,3.5,58,0.00,CLR,,0.00,WeatherDisplay:10.37,2013-06-24 17:14:00,
2013-06-24 13:19:00,87.5,71.4,29.97,SW,236,1.6,4.6,59,0.00,CLR,,0.00,WeatherDisplay:10.37,2013-06-24 17:19:00,
2013-06-24 13:25:00,87.6,71.5,29.97,SW,233,0.5,2.3,59,0.00,CLR,,0.00,WeatherDisplay:10.37,2013-06-24 17:25:00,
2013-06-24 13:30:00,87.9,72.8,29.97,SSW,209,2.1,4.0,61,0.00,CLR,,0.00,WeatherDisplay:10.37,2013-06-24 17:30:00,
2013-06-24 13:35:00,87.7,72.1,29.96,WSW,239,0.1,1.1,60,0.00,CLR,,0.00,WeatherDisplay:10.37,2013-06-24 17:35:00,
2013-06-24 13:41:00,88.1,72.0,29.96,SW,236,1.0,3.5,59,0.00,CLR,,0.00,WeatherDisplay:10.37,2013-06-24 17:41:00,
2013-06-24 13:46:00,88.1,73.0,29.96,SW,225,0.0,2.0,61,0.00,CLR,,0.00,WeatherDisplay:10.37,2013-06-24 17:46:00,
2013-06-24 13:51:00,88.2,73.0,29.97,WSW,248,3.7,4.6,61,0.00,CLR,,0.00,WeatherDisplay:10.37,2013-06-24 17:51:00,
2013-06-24 13:57:00,88.0,72.4,29.96,WSW,257,0.5,3.5,60,0.00,CLR,,0.00,WeatherDisplay:10.37,2013-06-24 17:57:00,
2013-06-24 14:02:00,88.1,72.5,29.96,SW,222,2.3,5.0,60,0.00,CLR,,0.00,WeatherDisplay:10.37,2013-06-24 18:02:00,
2013-06-24 14:07:00,88.0,72.4,29.96,NE,40,0.8,3.5,60,0.00,CLR,,0.00,WeatherDisplay:10.37,2013-06-24 18:07:00,
2013-06-24 14:12:00,88.2,72.1,29.95,South,188,2.1,3.5,59,0.00,CLR,,0.00,WeatherDisplay:10.37,2013-06-24 18:12:00,
2013-06-24 14:17:00,88.0,71.4,29.95,SSW,213,1.6,3.5,58,0.00,CLR,,0.00,WeatherDisplay:10.37,2013-06-24 18:17:00,
2013-06-24 14:23:00,87.7,71.1,29.95,WSW,238,2.4,3.5,58,0.00,CLR,,0.00,WeatherDisplay:10.37,2013-06-24 18:23:00,
2013-06-24 14:28:00,87.4,70.8,29.94,WSW,249,0.0,3.5,58,0.00,CLR,,0.00,WeatherDisplay:10.37,2013-06-24 18:28:00,
2013-06-24 14:33:00,87.3,70.7,29.94,WSW,255,3.4,4.0,58,0.00,CLR,,0.00,WeatherDisplay:10.37,2013-06-24 18:33:00,
2013-06-24 14:38:00,87.2,70.1,29.94,West,260,2.1,3.5,57,0.00,,,0.00,WeatherDisplay:10.37,2013-06-24 18:38:00,
2013-06-24 14:44:00,87.2,70.1,29.94,SSW,198,5.2,9.2,57,0.00,,,0.00,WeatherDisplay:10.37,2013-06-24 18:44:00,
2013-06-24 14:49:00,87.2,70.1,29.94,SW,221,1.2,4.6,57,0.00,,,0.00,WeatherDisplay:10.37,2013-06-24 18:49:00,
2013-06-24 14:54:00,87.1,70.0,29.94,WSW,237,3.0,5.8,57,0.00,,,0.00,WeatherDisplay:10.37,2013-06-24 18:54:00,
2013-06-24 14:59:00,86.8,70.8,29.93,SSW,206,1.0,5.8,59,0.00,,,0.00,WeatherDisplay:10.37,2013-06-24 18:59:00,
2013-06-24 15:05:00,86.6,70.6,29.93,SSW,207,3.9,9.2,59,0.00,,,0.00,WeatherDisplay:10.37,2013-06-24 19:05:00,
2013-06-24 15:10:00,86.5,70.0,29.94,WSW,241,4.0,4.0,58,0.00,,,0.00,WeatherDisplay:10.37,2013-06-24 19:10:00,
2013-06-24 15:15:00,86.5,69.5,29.93,SW,217,2.4,4.6,57,0.00,,,0.00,WeatherDisplay:10.37,2013-06-24 19:15:00,
2013-06-24 15:20:00,86.6,69.6,29.93,SSW,198,1.8,3.5,57,0.00,,,0.00,WeatherDisplay:10.37,2013-06-24 19:20:00,
2013-06-24 15:25:00,86.6,69.0,29.93,West,261,3.3,8.1,56,0.00,,,0.00,WeatherDisplay:10.37,2013-06-24 19:25:00,
2013-06-24 15:31:00,86.3,68.2,29.93,SSW,200,1.9,11.5,55,0.00,,,0.00,WeatherDisplay:10.37,2013-06-24 19:31:00,
2013-06-24 15:36:00,86.3,68.2,29.93,SSW,209,4.8,10.4,55,0.00,,,0.00,WeatherDisplay:10.37,2013-06-24 19:36:00,
2013-06-24 15:41:00,86.4,68.3,29.92,South,190,3.8,8.1,55,0.00,,,0.00,WeatherDisplay:10.37,2013-06-24 19:41:00,
2013-06-24 15:46:00,86.5,68.9,29.92,SW,234,0.2,2.3,56,0.00,,,0.00,WeatherDisplay:10.37,2013-06-24 19:46:00,
2013-06-24 15:52:00,86.3,68.2,29.92,NE,46,0.3,3.5,55,0.00,,,0.00,WeatherDisplay:10.37,2013-06-24 19:52:00,
2013-06-24 15:57:00,86.5,68.9,29.92,SSW,196,0.9,3.5,56,0.00,,,0.00,WeatherDisplay:10.37,2013-06-24 19:57:00,
2013-06-24 16:02:00,86.8,69.2,29.92,SW,222,2.9,4.0,56,0.00,,,0.00,WeatherDisplay:10.37,2013-06-24 20:02:00,
2013-06-24 16:07:00,87.2,68.5,29.92,ESE,118,1.2,3.5,54,0.00,,,0.00,WeatherDisplay:10.37,2013-06-24 20:07:00,
2013-06-24 16:13:00,87.3,68.1,29.92,SW,214,2.3,3.5,53,0.00,,,0.00,WeatherDisplay:10.37,2013-06-24 20:13:00,
2013-06-24 16:18:00,87.1,66.8,29.92,SW,226,4.0,10.4,51,0.00,,,0.00,WeatherDisplay:10.37,2013-06-24 20:18:00,
2013-06-24 16:23:00,86.5,67.3,29.92,South,176,3.1,5.8,53,0.00,,,0.00,WeatherDisplay:10.37,2013-06-24 20:23:00,
2013-06-24 16:28:00,86.7,67.5,29.92,SSW,200,1.4,3.5,53,0.00,,,0.00,WeatherDisplay:10.37,2013-06-24 20:28:00,
2013-06-24 16:34:00,87.2,68.5,29.91,WSW,248,2.6,3.5,54,0.00,,,0.00,WeatherDisplay:10.37,2013-06-24 20:34:00,
2013-06-24 16:39:00,87.1,67.3,29.91,SW,225,3.9,6.9,52,0.00,,,0.00,WeatherDisplay:10.37,2013-06-24 20:39:00,
2013-06-24 16:44:00,87.1,67.3,29.91,SSW,200,3.1,3.5,52,0.00,,,0.00,WeatherDisplay:10.37,2013-06-24 20:44:00,
2013-06-24 16:49:00,87.3,67.5,29.91,South,189,2.1,3.5,52,0.00,,,0.00,WeatherDisplay:10.37,2013-06-24 20:49:00,
2013-06-24 16:54:00,87.7,67.3,29.91,SW,215,3.0,6.9,51,0.00,,,0.00,WeatherDisplay:10.37,2013-06-24 20:54:00,
2013-06-24 17:00:00,87.7,67.3,29.90,SSW,196,1.3,3.5,51,0.00,,,0.00,WeatherDisplay:10.37,2013-06-24 21:00:00,
2013-06-24 17:06:00,87.7,67.9,29.90,South,185,4.4,5.8,52,0.00,,,0.00,WeatherDisplay:10.37,2013-06-24 21:06:00,
2013-06-24 17:11:00,87.5,66.6,29.90,SW,232,2.0,3.5,50,0.00,,,0.00,WeatherDisplay:10.37,2013-06-24 21:11:00,
2013-06-24 17:16:00,87.5,67.1,29.90,SSW,211,1.4,3.5,51,0.00,,,0.00,WeatherDisplay:10.37,2013-06-24 21:16:00,
2013-06-24 17:22:00,88.0,67.6,29.90,SW,217,1.7,4.0,51,0.00,,,0.00,WeatherDisplay:10.37,2013-06-24 21:22:00,
2013-06-24 17:27:00,88.8,67.2,29.90,SSW,207,1.4,3.5,49,0.00,,,0.00,WeatherDisplay:10.37,2013-06-24 21:27:00,
2013-06-24 17:32:00,89.2,66.9,29.90,SW,223,2.8,11.5,48,0.00,,,0.00,WeatherDisplay:10.37,2013-06-24 21:32:00,
2013-06-24 17:37:00,88.7,67.1,29.90,SSW,211,2.5,3.5,49,0.00,,,0.00,WeatherDisplay:10.37,2013-06-24 21:37:00,
2013-06-24 17:43:00,87.9,66.9,29.90,SSW,209,2.3,4.0,50,0.00,,,0.00,WeatherDisplay:10.37,2013-06-24 21:43:00,
2013-06-24 17:48:00,87.8,67.4,29.89,SSW,192,0.7,3.5,51,0.00,,,0.00,WeatherDisplay:10.37,2013-06-24 21:48:00,
2013-06-24 17:53:00,87.8,67.4,29.90,SSW,192,3.2,4.6,51,0.00,,,0.00,WeatherDisplay:10.37,2013-06-24 21:53:00,
2013-06-24 17:59:00,87.1,66.8,29.90,SW,218,2.6,6.9,51,0.00,,,0.00,WeatherDisplay:10.37,2013-06-24 21:59:00,
2013-06-24 18:04:00,86.8,67.1,29.90,WSW,240,1.0,3.5,52,0.00,,,0.00,WeatherDisplay:10.37,2013-06-24 22:04:00,
2013-06-24 18:11:00,86.3,67.7,29.89,South,191,0.6,2.3,54,0.00,,,0.00,WeatherDisplay:10.37,2013-06-24 22:11:00,
2013-06-24 18:16:00,86.4,68.3,29.89,South,176,2.9,4.6,55,0.00,,,0.00,WeatherDisplay:10.37,2013-06-24 22:16:00,
2013-06-24 18:21:00,86.3,67.7,29.89,SSW,205,3.4,6.9,54,0.00,,,0.00,WeatherDisplay:10.37,2013-06-24 22:21:00,
2013-06-24 18:26:00,85.9,67.3,29.89,WSW,250,2.4,3.5,54,0.00,,,0.00,WeatherDisplay:10.37,2013-06-24 22:26:00,
2013-06-24 18:31:00,85.2,67.2,29.89,SW,232,3.6,6.9,55,0.00,,,0.00,WeatherDisplay:10.37,2013-06-24 22:31:00,
2013-06-24 18:37:00,84.9,67.5,29.89,SW,236,0.2,1.1,56,0.00,,,0.00,WeatherDisplay:10.37,2013-06-24 22:37:00,
2013-06-24 18:42:00,84.9,68.0,29.89,SSW,196,1.5,3.5,57,0.00,,,0.00,WeatherDisplay:10.37,2013-06-24 22:42:00,
2013-06-24 18:47:00,84.8,67.4,29.89,South,184,2.8,4.6,56,0.00,,,0.00,WeatherDisplay:10.37,2013-06-24 22:47:00,
2013-06-24 18:53:00,84.5,66.6,29.89,SW,218,2.6,5.8,55,0.00,,,0.00,WeatherDisplay:10.37,2013-06-24 22:53:00,
2013-06-24 18:58:00,84.3,66.9,29.89,WSW,241,1.9,4.6,56,0.00,,,0.00,WeatherDisplay:10.37,2013-06-24 22:58:00,
2013-06-24 19:03:00,84.1,66.7,29.89,WSW,257,2.2,4.6,56,0.00,,,0.00,WeatherDisplay:10.37,2013-06-24 23:03:00,
2013-06-24 19:08:00,84.0,66.6,29.89,SSW,211,0.0,0.0,56,0.00,,,0.00,WeatherDisplay:10.37,2013-06-24 23:08:00,
2013-06-24 19:14:00,83.9,67.0,29.89,WSW,248,0.7,4.0,57,0.00,,,0.00,WeatherDisplay:10.37,2013-06-24 23:14:00,
2013-06-24 19:19:00,83.7,66.8,29.89,SSW,206,1.9,4.6,57,0.00,,,0.00,WeatherDisplay:10.37,2013-06-24 23:19:00,
2013-06-24 19:24:00,83.7,67.4,29.89,WSW,238,0.6,3.5,58,0.00,,,0.00,WeatherDisplay:10.37,2013-06-24 23:24:00,
2013-06-24 19:30:00,83.5,67.2,29.89,WSW,237,1.4,3.5,58,0.00,,,0.00,WeatherDisplay:10.37,2013-06-24 23:30:00,
2013-06-24 19:35:00,83.3,67.5,29.90,SW,234,0.1,1.1,59,0.00,,,0.00,WeatherDisplay:10.37,2013-06-24 23:35:00,
2013-06-24 19:41:00,83.2,67.4,29.89,SW,217,0.2,1.1,59,0.00,,,0.00,WeatherDisplay:10.37,2013-06-24 23:41:00,
2013-06-24 19:46:00,83.1,67.3,29.89,SW,221,2.2,2.3,59,0.00,,,0.00,WeatherDisplay:10.37,2013-06-24 23:46:00,
2013-06-24 19:51:00,83.0,67.2,29.89,SW,230,0.5,2.3,59,0.00,,,0.00,WeatherDisplay:10.37,2013-06-24 23:51:00,
2013-06-24 19:57:00,82.9,67.1,29.90,SW,227,0.2,2.3,59,0.00,,,0.00,WeatherDisplay:10.37,2013-06-24 23:57:00,
2013-06-24 20:02:00,82.8,67.0,29.90,SW,219,0.2,1.0,59,0.00,,,0.00,WeatherDisplay:10.37,2013-06-25 00:02:00,
2013-06-24 20:07:00,82.7,66.9,29.90,WSW,241,0.5,2.3,59,0.00,,,0.00,WeatherDisplay:10.37,2013-06-25 00:07:00,
2013-06-24 20:12:00,82.5,66.7,29.90,SW,226,0.7,2.3,59,0.00,,,0.00,WeatherDisplay:10.37,2013-06-25 00:12:00,
2013-06-24 20:17:00,82.2,65.4,29.89,SSW,213,1.1,3.5,57,0.00,,,0.00,WeatherDisplay:10.37,2013-06-25 00:17:00,
2013-06-24 20:22:00,82.0,66.3,29.90,SSW,213,0.0,0.0,59,0.00,,,0.00,WeatherDisplay:10.37,2013-06-25 00:22:00,
2013-06-24 20:28:00,81.8,66.1,29.90,SSW,213,0.1,1.1,59,0.00,,,0.00,WeatherDisplay:10.37,2013-06-25 00:28:00,
2013-06-24 20:33:00,81.7,66.0,29.90,SSW,213,0.0,0.0,59,0.00,,,0.00,WeatherDisplay:10.37,2013-06-25 00:33:00,
2013-06-24 20:38:00,81.4,65.2,29.90,SSW,209,0.9,2.3,58,0.00,,,0.00,WeatherDisplay:10.37,2013-06-25 00:38:00,
2013-06-24 20:44:00,81.2,65.5,29.90,SSW,209,0.0,0.0,59,0.00,,,0.00,WeatherDisplay:10.37,2013-06-25 00:44:00,
2013-06-24 20:49:00,81.0,65.3,29.90,SSW,209,0.0,0.0,59,0.00,,,0.00,WeatherDisplay:10.37,2013-06-25 00:49:00,
2013-06-24 20:55:00,80.7,65.0,29.90,SSW,209,0.0,1.1,59,0.00,,,0.00,WeatherDisplay:10.37,2013-06-25 00:55:00,
2013-06-24 21:00:00,80.4,64.3,29.90,SSW,209,0.3,3.5,58,0.00,,,0.00,WeatherDisplay:10.37,2013-06-25 01:00:00,
2013-06-24 21:05:00,80.4,64.3,29.89,SW,218,0.8,2.3,58,0.00,,,0.00,WeatherDisplay:10.37,2013-06-25 01:05:00,
2013-06-24 21:10:00,80.3,64.7,29.89,SW,218,0.0,0.0,59,0.00,,,0.00,WeatherDisplay:10.37,2013-06-25 01:10:00,
2013-06-24 21:15:00,80.2,64.6,29.89,SW,218,0.0,0.0,59,0.00,,,0.00,WeatherDisplay:10.37,2013-06-25 01:15:00,
2013-06-24 21:20:00,80.0,64.9,29.90,SW,218,0.0,0.0,60,0.00,,,0.00,WeatherDisplay:10.37,2013-06-25 01:20:00,
2013-06-24 21:25:00,79.8,65.2,29.90,SW,218,0.2,1.1,61,0.00,,,0.00,WeatherDisplay:10.37,2013-06-25 01:25:00,
2013-06-24 21:31:00,79.4,64.8,29.90,SW,218,0.0,0.0,61,0.00,,,0.00,WeatherDisplay:10.37,2013-06-25 01:31:00,
2013-06-24 21:36:00,79.1,64.5,29.91,SW,218,0.0,0.0,61,0.00,,,0.00,WeatherDisplay:10.37,2013-06-25 01:36:00,
2013-06-24 21:41:00,78.9,65.2,29.91,SW,218,0.0,0.0,63,0.00,,,0.00,WeatherDisplay:10.37,2013-06-25 01:41:00,
2013-06-24 21:46:00,78.7,65.0,29.91,SW,218,0.0,0.0,63,0.00,,,0.00,WeatherDisplay:10.37,2013-06-25 01:46:00,
2013-06-24 21:51:00,78.5,64.9,29.91,SW,218,0.0,0.0,63,0.00,,,0.00,WeatherDisplay:10.37,2013-06-25 01:51:00,
2013-06-24 21:57:00,77.8,65.1,29.91,SW,218,0.0,0.0,65,0.00,,,0.00,WeatherDisplay:10.37,2013-06-25 01:57:00,
2013-06-24 22:03:00,77.4,65.1,29.91,SW,218,0.0,0.0,66,0.00,,,0.00,WeatherDisplay:10.37,2013-06-25 02:03:00,
2013-06-24 22:08:00,77.0,64.8,29.91,SW,218,0.0,0.0,66,0.00,,,0.00,WeatherDisplay:10.37,2013-06-25 02:08:00,
2013-06-24 22:13:00,76.6,64.8,29.91,SW,218,0.0,0.0,67,0.00,,,0.00,WeatherDisplay:10.37,2013-06-25 02:13:00,
2013-06-24 22:18:00,76.3,65.0,29.91,SW,218,0.0,0.0,68,0.00,,,0.00,WeatherDisplay:10.37,2013-06-25 02:18:00,
2013-06-24 22:24:00,76.1,64.8,29.91,SW,218,0.0,0.0,68,0.00,,,0.00,WeatherDisplay:10.37,2013-06-25 02:24:00,
2013-06-24 22:29:00,76.0,65.1,29.91,SW,225,0.3,0.0,69,0.00,,,0.00,WeatherDisplay:10.37,2013-06-25 02:29:00,
2013-06-24 22:34:00,76.0,65.1,29.91,SW,227,0.0,0.0,69,0.00,,,0.00,WeatherDisplay:10.37,2013-06-25 02:34:00,
2013-06-24 22:39:00,76.0,65.1,29.91,SW,229,0.5,3.5,69,0.00,,,0.00,WeatherDisplay:10.37,2013-06-25 02:39:00,
2013-06-24 22:45:00,75.9,65.0,29.91,SW,229,0.0,0.0,69,0.00,,,0.00,WeatherDisplay:10.37,2013-06-25 02:45:00,
2013-06-24 22:51:00,75.9,65.0,29.91,SW,232,0.0,0.0,69,0.00,,,0.00,WeatherDisplay:10.37,2013-06-25 02:51:00,
2013-06-24 22:56:00,75.8,65.3,29.91,SW,232,0.0,0.0,70,0.00,,,0.00,WeatherDisplay:10.37,2013-06-25 02:56:00,
2013-06-24 23:01:00,75.6,65.1,29.91,SW,232,0.0,0.0,70,0.00,,,0.00,WeatherDisplay:10.37,2013-06-25 03:01:00,
2013-06-24 23:06:00,75.5,65.0,29.91,SW,232,0.0,0.0,70,0.00,,,0.00,WeatherDisplay:10.37,2013-06-25 03:06:00,
2013-06-24 23:11:00,75.3,65.2,29.91,SW,232,0.0,0.0,71,0.00,,,0.00,WeatherDisplay:10.37,2013-06-25 03:11:00,
2013-06-24 23:17:00,75.2,65.6,29.91,SW,232,0.0,0.0,72,0.00,,,0.00,WeatherDisplay:10.37,2013-06-25 03:17:00,
2013-06-24 23:22:00,75.1,65.5,29.91,SW,232,0.0,0.0,72,0.00,,,0.00,WeatherDisplay:10.37,2013-06-25 03:22:00,
2013-06-24 23:27:00,75.1,65.5,29.91,SW,232,0.0,0.0,72,0.00,,,0.00,WeatherDisplay:10.37,2013-06-25 03:27:00,
2013-06-24 23:32:00,75.1,65.5,29.90,SW,232,0.0,1.1,72,0.00,,,0.00,WeatherDisplay:10.37,2013-06-25 03:32:00,
2013-06-24 23:38:00,75.2,65.6,29.90,SW,232,0.0,0.0,72,0.00,,,0.00,WeatherDisplay:10.37,2013-06-25 03:38:00,
2013-06-24 23:43:00,75.3,65.6,29.90,SW,232,0.0,0.0,72,0.00,,,0.00,WeatherDisplay:10.37,2013-06-25 03:43:00,
2013-06-24 23:48:00,75.3,65.6,29.90,SW,232,0.0,0.0,72,0.00,,,0.00,WeatherDisplay:10.37,2013-06-25 03:48:00,
2013-06-24 23:53:00,75.2,65.6,29.90,SW,232,0.0,0.0,72,0.00,,,0.00,WeatherDisplay:10.37,2013-06-25 03:53:00,
2013-06-24 23:58:00,74.9,65.7,29.90,SW,232,0.0,0.0,73,0.00,,,0.00,WeatherDisplay:10.37,2013-06-25 03:58:00,